Hourly Weather Bolshie Lezhni

Today, 20 June, Sunday

Time Temperature Precipitation Wind Pressure Humidity
00:00 +19°C° 0 mm 2 mps 753 mmHg 93%
01:00 +19°C° 0 mm 2 mps 753 mmHg 93%
02:00 +19°C° 0 mm 2 mps 753 mmHg 94%
03:00 +19°C° 0 mm 2 mps 753 mmHg 93%
04:00 +19°C° 0 mm 2 mps 753 mmHg 92%
05:00 +20°C° 0 mm 2 mps 753 mmHg 91%
06:00 +21°C° 0 mm 2 mps 753 mmHg 85%
07:00 +24°C° 0 mm 2 mps 753 mmHg 79%
08:00 +26°C° 0 mm 2 mps 753 mmHg 73%
09:00 +27°C° 0 mm 3 mps 753 mmHg 69%
10:00 +28°C° 0 mm 3 mps 753 mmHg 64%
11:00 +29°C° 0 mm 3 mps 753 mmHg 60%
12:00 +30°C° 0 mm 3 mps 752 mmHg 58%
13:00 +30°C° 0 mm 3 mps 752 mmHg 55%
14:00 +31°C° 0 mm 3 mps 752 mmHg 53%
15:00 +30°C° 0 mm 3 mps 752 mmHg 57%
16:00 +30°C° 0 mm 3 mps 752 mmHg 60%
17:00 +29°C° 0 mm 3 mps 751 mmHg 63%
18:00 +28°C° 0 mm 3 mps 751 mmHg 70%
19:00 +26°C° 0 mm 2 mps 751 mmHg 77%
20:00 +25°C° 0 mm 2 mps 751 mmHg 84%
21:00 +24°C° 0 mm 2 mps 751 mmHg 86%
22:00 +21°C° 0 mm 2 mps 751 mmHg 88%
23:00 +20°C° 0 mm 2 mps 751 mmHg 89%

Tomorrow, 21 June, Monday

Time Temperature Precipitation Wind Pressure Humidity
00:00 +20°C° 0 mm 2 mps 751 mmHg 89%
01:00 +19°C° 0 mm 2 mps 751 mmHg 89%
02:00 +19°C° 0 mm 2 mps 751 mmHg 89%
03:00 +19°C° 0 mm 2 mps 751 mmHg 89%
04:00 +19°C° 0 mm 2 mps 751 mmHg 88%
05:00 +20°C° 0 mm 2 mps 751 mmHg 87%
06:00 +21°C° 0 mm 2 mps 751 mmHg 81%
07:00 +24°C° 0 mm 3 mps 751 mmHg 76%
08:00 +25°C° 0 mm 3 mps 751 mmHg 70%
09:00 +26°C° 0 mm 4 mps 751 mmHg 65%
10:00 +27°C° 0 mm 4 mps 751 mmHg 60%
11:00 +28°C° 0 mm 4 mps 751 mmHg 54%
12:00 +29°C° 0 mm 4 mps 751 mmHg 52%
13:00 +29°C° 0 mm 4 mps 750 mmHg 50%
14:00 +30°C° 0 mm 4 mps 750 mmHg 47%
15:00 +30°C° 0 mm 4 mps 750 mmHg 51%
16:00 +29°C° 0 mm 4 mps 750 mmHg 55%
17:00 +29°C° 0 mm 4 mps 750 mmHg 58%
18:00 +27°C° 0 mm 3 mps 750 mmHg 66%
19:00 +26°C° 0 mm 3 mps 750 mmHg 73%
20:00 +24°C° 0 mm 3 mps 749 mmHg 80%
21:00 +22°C° 0 mm 3 mps 749 mmHg 82%
22:00 +22°C° 0 mm 3 mps 749 mmHg 85%
23:00 +21°C° 0 mm 3 mps 749 mmHg 87%

Day after tomorrow, 22 June, Tuesday

Time Temperature Precipitation Wind Pressure Humidity
00:00 +20°C° 0 mm 3 mps 749 mmHg 89%
01:00 +20°C° 0 mm 3 mps 749 mmHg 92%
02:00 +20°C° 0 mm 3 mps 749 mmHg 94%
03:00 +20°C° 0 mm 3 mps 749 mmHg 94%
04:00 +20°C° 0 mm 3 mps 749 mmHg 93%
05:00 +20°C° 0 mm 3 mps 749 mmHg 92%
06:00 +22°C° 0 mm 3 mps 749 mmHg 86%
07:00 +23°C° 0 mm 4 mps 749 mmHg 80%
08:00 +26°C° 0 mm 4 mps 749 mmHg 74%
09:00 +27°C° 0 mm 4 mps 749 mmHg 69%
10:00 +28°C° 0 mm 5 mps 749 mmHg 63%
11:00 +30°C° 0 mm 5 mps 749 mmHg 57%
12:00 +30°C° 0 mm 5 mps 749 mmHg 56%
13:00 +32°C° 0 mm 5 mps 749 mmHg 54%
14:00 +32°C° 0 mm 5 mps 749 mmHg 53%
15:00 +32°C° 0 mm 5 mps 749 mmHg 55%
16:00 +32°C° 0 mm 4 mps 749 mmHg 58%
17:00 +32°C° 0 mm 4 mps 749 mmHg 60%
18:00 +29°C° 0 mm 4 mps 749 mmHg 67%
19:00 +28°C° 0 mm 3 mps 749 mmHg 74%
20:00 +26°C° 0 mm 3 mps 749 mmHg 80%
21:00 +25°C° 0 mm 3 mps 749 mmHg 83%
22:00 +24°C° 0 mm 3 mps 749 mmHg 85%
23:00 +22°C° 0 mm 3 mps 750 mmHg 87%

23 June, Wednesday

Time Temperature Precipitation Wind Pressure Humidity
00:00 +22°C° 0 mm 3 mps 750 mmHg 88%
01:00 +21°C° 0 mm 3 mps 750 mmHg 90%
02:00 +20°C° 0 mm 2 mps 750 mmHg 91%
03:00 +20°C° 0 mm 2 mps 750 mmHg 90%
04:00 +20°C° 0 mm 2 mps 750 mmHg 90%
05:00 +20°C° 0 mm 2 mps 750 mmHg 89%
06:00 +22°C° 0 mm 3 mps 750 mmHg 82%
07:00 +25°C° 0 mm 3 mps 751 mmHg 76%
08:00 +27°C° 0 mm 4 mps 751 mmHg 69%
09:00 +28°C° 0 mm 4 mps 751 mmHg 64%
10:00 +29°C° 0 mm 4 mps 751 mmHg 60%
11:00 +32°C° 0 mm 4 mps 751 mmHg 55%
12:00 +32°C° 0 mm 4 mps 751 mmHg 54%
13:00 +33°C° 0 mm 4 mps 751 mmHg 52%
14:00 +33°C° 0 mm 4 mps 751 mmHg 51%
15:00 +33°C° 0 mm 4 mps 751 mmHg 53%
16:00 +33°C° 0 mm 4 mps 750 mmHg 55%
17:00 +33°C° 0 mm 3 mps 750 mmHg 58%
18:00 +31°C° 0 mm 3 mps 750 mmHg 64%
19:00 +29°C° 0 mm 3 mps 750 mmHg 71%
20:00 +27°C° 0 mm 2 mps 750 mmHg 78%
21:00 +26°C° 0 mm 2 mps 750 mmHg 81%
22:00 +25°C° 0 mm 2 mps 750 mmHg 84%
23:00 +24°C° 0 mm 2 mps 751 mmHg 87%

24 June, Thursday

Time Temperature Precipitation Wind Pressure Humidity
00:00 +24°C° 0 mm 2 mps 751 mmHg 88%
01:00 +23°C° 0 mm 2 mps 751 mmHg 89%
02:00 +23°C° 0 mm 2 mps 751 mmHg 90%
03:00 +23°C° 0 mm 2 mps 751 mmHg 90%
04:00 +23°C° 0 mm 2 mps 751 mmHg 90%
05:00 +24°C° 0 mm 2 mps 751 mmHg 89%
06:00 +25°C° 0 mm 2 mps 751 mmHg 83%
07:00 +27°C° 0 mm 3 mps 751 mmHg 77%
08:00 +29°C° 0 mm 3 mps 751 mmHg 71%
09:00 +30°C° 0 mm 3 mps 751 mmHg 65%
10:00 +31°C° 0 mm 3 mps 751 mmHg 58%
11:00 +33°C° 0 mm 4 mps 751 mmHg 52%
12:00 +33°C° 0 mm 4 mps 751 mmHg 51%
13:00 +34°C° 0 mm 4 mps 751 mmHg 50%
14:00 +34°C° 0 mm 4 mps 751 mmHg 49%
15:00 +34°C° 0 mm 4 mps 751 mmHg 52%
16:00 +33°C° 0 mm 4 mps 751 mmHg 56%
17:00 +33°C° 0 mm 4 mps 750 mmHg 59%
18:00 +30°C° 0.2 mm 4 mps 750 mmHg 66%
19:00 +29°C° 0.2 mm 3 mps 750 mmHg 73%
20:00 +27°C° 0.2 mm 3 mps 750 mmHg 80%
21:00 +25°C° 0.4 mm 2 mps 750 mmHg 81%
22:00 +23°C° 0.4 mm 2 mps 750 mmHg 82%
23:00 +21°C° 0.4 mm 1 mps 750 mmHg 83%

25 June, Friday

Time Temperature Precipitation Wind Pressure Humidity
00:00 +21°C° 0 mm 1 mps 750 mmHg 84%
01:00 +20°C° 0 mm 1 mps 750 mmHg 86%
02:00 +19°C° 0 mm 2 mps 750 mmHg 88%
03:00 +20°C° 0.1 mm 2 mps 750 mmHg 89%
04:00 +20°C° 0.1 mm 2 mps 750 mmHg 90%
05:00 +21°C° 0.1 mm 2 mps 750 mmHg 92%
06:00 +24°C° 0 mm 2 mps 750 mmHg 86%
07:00 +25°C° 0 mm 3 mps 750 mmHg 81%
08:00 +27°C° 0 mm 3 mps 750 mmHg 75%
09:00 +28°C° 0.1 mm 3 mps 750 mmHg 71%
10:00 +30°C° 0.1 mm 4 mps 750 mmHg 68%
11:00 +32°C° 0.1 mm 4 mps 750 mmHg 64%
12:00 +32°C° 0.1 mm 4 mps 750 mmHg 61%
13:00 +33°C° 0.1 mm 5 mps 749 mmHg 57%
14:00 +33°C° 0.1 mm 5 mps 749 mmHg 54%
15:00 +32°C° 0.3 mm 5 mps 749 mmHg 57%
16:00 +32°C° 0.3 mm 4 mps 748 mmHg 60%
17:00 +30°C° 0.3 mm 4 mps 748 mmHg 63%
18:00 +28°C° 0.2 mm 3 mps 748 mmHg 70%
19:00 +26°C° 0.2 mm 2 mps 748 mmHg 76%
20:00 +24°C° 0.2 mm 2 mps 748 mmHg 83%
21:00 +24°C° 0.7 mm 1 mps 748 mmHg 85%
22:00 +23°C° 0.7 mm 1 mps 748 mmHg 87%
23:00 +23°C° 0.7 mm 1 mps 748 mmHg 89%
Show more